Weather reports worldwide

Advertisment
Albacete/Los Llanos, Spain (8280): temperature & dewpoint: 20.05.2019 02:00:00 - 26.05.2019 02:00:00 (CEST)Albacete/Los Llanos, Spain (8280): wind speed: 20.05.2019 02:00:00 - 26.05.2019 02:00:00 (CEST)Albacete/Los Llanos, Spain (8280): wind direction: 20.05.2019 02:00:00 - 26.05.2019 02:00:00 (CEST)Albacete/Los Llanos, Spain (8280): reduced air pressure: 20.05.2019 02:00:00 - 26.05.2019 02:00:00 (CEST)Albacete/Los Llanos, Spain (8280): visibility: 20.05.2019 02:00:00 - 26.05.2019 02:00:00 (CEST)
Date & Time tt [°C] td [°C] ff [km/h] ff [kn] dd ppp [hPa] vv [km]
26.05.2019 02:00:00 - - - - - - -
26.05.2019 01:00:00 - - - - - - -
26.05.2019 00:00:00 - - - - - - -
25.05.2019 23:00:00 14,7 8,0 9 5 S 1017,9 30
25.05.2019 22:00:00 - - - - - - -
25.05.2019 21:00:00 - - - - - - -
25.05.2019 20:00:00 21,8 6,5 11 6 NE 1014,3 50
25.05.2019 19:00:00 - - - - - - -
25.05.2019 18:00:00 - - - - - - -
25.05.2019 17:00:00 22,7 6,5 11 6 N 1013,9 50
25.05.2019 16:00:00 - - - - - - -
25.05.2019 15:00:00 - - - - - - -
25.05.2019 14:00:00 20,5 6,8 9 5 N 1015,3 50
25.05.2019 13:00:00 - - - - - - -
25.05.2019 12:00:00 - - - - - - -
25.05.2019 11:00:00 16,5 7,7 15 8 NNE 1016,6 50
25.05.2019 10:00:00 - - - - - - -
25.05.2019 09:00:00 - - - - - - -
25.05.2019 08:00:00 10,3 8,6 9 5 NW 1017,5 30
25.05.2019 07:00:00 - - - - - - -
25.05.2019 06:00:00 - - - - - - -
25.05.2019 05:00:00 10,1 9,5 5 3 W 1017,0 30
25.05.2019 04:00:00 - - - - - - -
25.05.2019 03:00:00 - - - - - - -
25.05.2019 02:00:00 - - - - - - -
25.05.2019 01:00:00 - - - - - - -
25.05.2019 00:00:00 - - - - - - -
24.05.2019 23:00:00 13,7 11,8 5 3 SE 1016,0 35
24.05.2019 22:00:00 - - - - - - -
24.05.2019 21:00:00 - - - - - - -
24.05.2019 20:00:00 16,0 12,2 15 8 ENE 1013,7 30
24.05.2019 19:00:00 - - - - - - -
24.05.2019 18:00:00 - - - - - - -
24.05.2019 17:00:00 15,5 13,9 31 17 NE 1012,0 5
24.05.2019 16:00:00 - - - - - - -
24.05.2019 15:00:00 - - - - - - -
24.05.2019 14:00:00 22,6 7,2 9 5 E 1010,4 40
24.05.2019 13:00:00 - - - - - - -
24.05.2019 12:00:00 - - - - - - -
24.05.2019 11:00:00 20,2 8,5 9 5 N 1011,9 40
24.05.2019 10:00:00 - - - - - - -
24.05.2019 09:00:00 - - - - - - -
24.05.2019 08:00:00 15,4 8,6 2 1 N 1012,7 40
24.05.2019 07:00:00 - - - - - - -
24.05.2019 06:00:00 - - - - - - -
24.05.2019 05:00:00 15,2 7,5 8 4 SSE 1013,0 30
24.05.2019 04:00:00 - - - - - - -
24.05.2019 03:00:00 - - - - - - -
24.05.2019 02:00:00 17,6 7,1 16 9 S 1013,6 30
24.05.2019 01:00:00 - - - - - - -
24.05.2019 00:00:00 - - - - - - -
23.05.2019 23:00:00 20,3 6,3 13 7 S 1013,4 30
23.05.2019 22:00:00 - - - - - - -
23.05.2019 21:00:00 - - - - - - -
23.05.2019 20:00:00 25,3 7,9 15 8 S 1011,5 30
23.05.2019 19:00:00 - - - - - - -
23.05.2019 18:00:00 - - - - - - -
23.05.2019 17:00:00 27,6 5,2 9 5 W 1011,9 30
23.05.2019 16:00:00 - - - - - - -
23.05.2019 15:00:00 - - - - - - -
23.05.2019 14:00:00 26,2 7,7 9 5 NW 1014,0 30
23.05.2019 13:00:00 - - - - - - -
23.05.2019 12:00:00 - - - - - - -
23.05.2019 11:00:00 20,7 8,4 8 4 ESE 1016,9 30
23.05.2019 10:00:00 - - - - - - -
23.05.2019 09:00:00 - - - - - - -
23.05.2019 08:00:00 14,1 7,4 15 8 SSE 1018,1 25
23.05.2019 07:00:00 - - - - - - -
23.05.2019 06:00:00 - - - - - - -
23.05.2019 05:00:00 13,2 7,2 15 8 SSE 1017,8 25
23.05.2019 04:00:00 - - - - - - -
23.05.2019 03:00:00 - - - - - - -
23.05.2019 02:00:00 14,8 7,6 16 9 SSE 1017,5 20
23.05.2019 01:00:00 - - - - - - -
23.05.2019 00:00:00 - - - - - - -
22.05.2019 23:00:00 17,6 8,2 16 9 S 1016,7 20
22.05.2019 22:00:00 - - - - - - -
22.05.2019 21:00:00 - - - - - - -
22.05.2019 20:00:00 23,8 7,8 21 11 S 1013,6 30
22.05.2019 19:00:00 - - - - - - -
22.05.2019 18:00:00 - - - - - - -
22.05.2019 17:00:00 26,0 6,1 8 4 W 1013,4 30
22.05.2019 16:00:00 - - - - - - -
22.05.2019 15:00:00 - - - - - - -
22.05.2019 14:00:00 24,2 9,4 9 5 SE 1015,0 30
22.05.2019 13:00:00 - - - - - - -
22.05.2019 12:00:00 - - - - - - -
22.05.2019 11:00:00 19,7 10,1 13 7 S 1016,6 30
22.05.2019 10:00:00 - - - - - - -
22.05.2019 09:00:00 - - - - - - -
22.05.2019 08:00:00 11,1 9,4 4 2 NE 1018,4 30
22.05.2019 07:00:00 - - - - - - -
22.05.2019 06:00:00 - - - - - - -
22.05.2019 05:00:00 11,9 9,5 13 7 SE 1017,2 30
22.05.2019 04:00:00 - - - - - - -
22.05.2019 03:00:00 - - - - - - -
22.05.2019 02:00:00 12,3 9,0 8 4 SE 1017,8 30
22.05.2019 01:00:00 - - - - - - -
22.05.2019 00:00:00 - - - - - - -
21.05.2019 23:00:00 15,1 7,6 9 5 SE 1016,8 30
21.05.2019 22:00:00 - - - - - - -
21.05.2019 21:00:00 - - - - - - -
21.05.2019 20:00:00 16,8 9,0 22 12 S 1013,9 30
21.05.2019 19:00:00 - - - - - - -
21.05.2019 18:00:00 - - - - - - -
21.05.2019 17:00:00 20,8 5,6 21 11 ESE 1012,5 30
21.05.2019 16:00:00 - - - - - - -
21.05.2019 15:00:00 - - - - - - -
21.05.2019 14:00:00 20,8 4,4 9 5 E 1013,1 30
21.05.2019 13:00:00 - - - - - - -
21.05.2019 12:00:00 - - - - - - -
21.05.2019 11:00:00 18,2 9,5 15 8 SSE 1014,0 30
21.05.2019 10:00:00 - - - - - - -
21.05.2019 09:00:00 - - - - - - -
21.05.2019 08:00:00 12,9 10,4 5 3 ESE 1014,3 30
21.05.2019 07:00:00 - - - - - - -
21.05.2019 06:00:00 - - - - - - -
21.05.2019 05:00:00 13,6 10,6 8 4 SSE 1013,1 30
21.05.2019 04:00:00 - - - - - - -
21.05.2019 03:00:00 - - - - - - -
21.05.2019 02:00:00 14,7 10,5 13 7 SSE 1012,9 30
21.05.2019 01:00:00 - - - - - - -
21.05.2019 00:00:00 - - - - - - -
20.05.2019 23:00:00 15,1 9,9 5 3 SSE 1012,9 30
20.05.2019 22:00:00 - - - - - - -
20.05.2019 21:00:00 - - - - - - -
20.05.2019 20:00:00 20,9 2,7 16 9 W 1009,5 30
20.05.2019 19:00:00 - - - - - - -
20.05.2019 18:00:00 - - - - - - -
20.05.2019 17:00:00 22,4 3,5 9 5 NNE 1009,3 30
20.05.2019 16:00:00 - - - - - - -
20.05.2019 15:00:00 - - - - - - -
20.05.2019 14:00:00 20,2 1,6 9 5 N 1011,4 30
20.05.2019 13:00:00 - - - - - - -
20.05.2019 12:00:00 - - - - - - -
20.05.2019 11:00:00 14,9 4,6 5 3 NNW 1013,3 30
20.05.2019 10:00:00 - - - - - - -
20.05.2019 09:00:00 - - - - - - -
20.05.2019 08:00:00 6,4 3,7 8 4 SW 1015,0 30
20.05.2019 07:00:00 - - - - - - -
20.05.2019 06:00:00 - - - - - - -
20.05.2019 05:00:00 8,0 3,5 4 2 NW 1013,7 30
20.05.2019 04:00:00 - - - - - - -
20.05.2019 03:00:00 - - - - - - -
20.05.2019 02:00:00 10,0 3,3 5 3 SSE 1013,7 30

tt = temperature
td = dewpoint
ff = wind speed
dd = wind direction
ppp = reduced air pressure
vv = visibility

Next stations